Hourly Data Report for September 15, 2010

PETERBOROUGH AWOS
ONTARIO

44°14'00.000" N
78°22'00.000" W
191.40 m
6166420

Download Data

Hourly Data (September 2010)
Hourly Data Report for September 15, 2010
TIME
LST
Temp Definition
°C
Dew Point Definition
°C
Rel Hum Definition
%
Precip. Amount Definition
mm

Wind Dir Definition
10's deg

Wind Spd Definition
km/h
Visibility Definition
km
Stn Press Definition
kPa
Hmdx Definition


Wind Chill Definition


Weather Definition


00:00 11.1 7.4 78   LegendMM LegendMM 15.0 99.44      
01:00 9.8 7.8 87   LegendMM LegendMM 15.0 99.45      
02:00 10.1 8.2 88   LegendMM LegendMM 15.0 99.47      
03:00 8.7 7.9 95   LegendMM LegendMM 15.0 99.52      
04:00 8.8 8.2 96   LegendMM LegendMM 15.0 99.60      
05:00 6.2 6.0 99   LegendMM LegendMM 15.0 99.63      
06:00 5.5 5.4 99   LegendMM LegendMM 15.0 99.67      
07:00 8.6 8.0 96   LegendMM LegendMM 15.0 99.74      
08:00 10.4 7.2 81   LegendMM LegendMM 15.0 99.77      
09:00 12.0 7.1 72   LegendMM LegendMM 15.0 99.77      
10:00 13.5 7.3 66   LegendMM LegendMM 15.0 99.80      
11:00 14.0 7.1 63   LegendMM LegendMM 15.0 99.84      
12:00 15.4 7.3 58   LegendMM LegendMM 15.0 99.74      
13:00 15.9 7.1 56   LegendMM LegendMM 15.0 99.76      
14:00 15.8 7.2 57   LegendMM LegendMM 15.0 99.73      
15:00 16.0 7.9 59   LegendMM LegendMM 15.0 99.70      
16:00 15.8 7.0 56   LegendMM LegendMM 15.0 99.71      
17:00 15.6 7.9 60   LegendMM LegendMM 15.0 99.74      
18:00 14.3 8.5 68   LegendMM LegendMM 15.0 99.78      
19:00 13.4 8.5 72   LegendMM LegendMM 15.0 99.80      
20:00 11.7 9.6 87   LegendMM LegendMM 15.0 99.82      
21:00 8.8 8.5 98   LegendMM LegendMM 15.0 99.76      
22:00 8.1 7.8 98   LegendMM LegendMM 15.0 99.71      
23:00 8.7 8.3 97   LegendMM LegendMM 15.0 99.69      

Notes on Data Quality.

Legend

  • E = Estimated
  • M = Missing
  • NA = Not Available*
  • [empty] = Indicates an unobserved value
Date modified: